Regional Weather Roundup
Issued by NWS

Home | Current Version | Previous Version | Text Only | Print | Product List | Glossary Off
Versions: 1 2 3 4 5 6 7 8 9 10 11 12 13 14 15 16 17 18 19 20 21 22 23 24 25 26 27 28 29 30 31 32 33 34 35 36 37 38 39 40 41 42 43 44 45 46 47 48 49 50

000
ASUS45 KBOI 300810
RWRID
WEATHER ROUNDUP FOR IDAHO
NATIONAL WEATHER SERVICE BOISE ID
200 AM MDT SAT AUG 30 2014

NOTE: "FAIR" INDICATES FEW OR NO CLOUDS BELOW 12000 FEET
WITH NO SIGNIFICANT WEATHER AND/OR OBSTRUCTIONS TO VISIBILITY

IDZ012-014-300900-
SOUTHWEST IDAHO


CITY           SKY/WX    TMP DP  RH WIND       PRES   REMARKS
BOISE          MOCLDY    72  50  45 W5        29.82R
CALDWELL       MOCLDY    70  41  35 W9        29.84S
MOUNTAIN HOME  PTCLDY    69  48  46 NE6       29.80F
$$

IDZ016-017-300900-
SOUTHCENTRAL IDAHO


CITY           SKY/WX    TMP DP  RH WIND       PRES   REMARKS
BURLEY         PTCLDY    61  52  72 CALM      29.87F
JEROME         PTCLDY    62  48  60 NE8       29.86F
TWIN FALLS     CLEAR     68  44  42 S13       29.86F
$$

IDZ019>023-300900-
SOUTHEAST IDAHO


CITY           SKY/WX    TMP DP  RH WIND       PRES   REMARKS
IDAHO FALLS    CLOUDY    62  47  57 NW7       29.96R
POCATELLO      CLEAR     67  46  47 CALM      29.92F
REXBURG        MOCLDY    61  47  59 CALM      29.97S
$$

IDZ006-010-011-018-031-032-300900-
CENTRAL IDAHO MOUNTAINS


CITY           SKY/WX    TMP DP  RH WIND       PRES   REMARKS
MCCALL         CLOUDY    63  38  39 N10       29.95F
HAILEY         MOCLDY    59  52  77 NW13      29.98F
STANLEY          N/A     53  49  86 CALM      30.06F
SALMON         CLOUDY    61  52  72 E6        29.85R
CHALLIS        LGT RAIN  67  46  47 SW12      29.93S
$$

IDZ002-004-006-007-026-300900-
NORTHERN IDAHO


CITY           SKY/WX    TMP DP  RH WIND       PRES   REMARKS
LEWISTON       CLOUDY    70  44  39 W15       29.87R
LOWELL           N/A     63  53  70 CALM      29.87R
COEUR D`ALENE  MOCLDY    61  43  51 SW5       29.83R
MULLAN PASS    CLOUDY    53  39  59 VRB5      29.97F
$$



USA.gov is the U.S. government's official web portal to all federal, state and local government web resources and services.